EZY54EC EGKK-EDDL

Flight info

Callsign EZY54EC
Flight time 0h 56m
Altitude 33000
Route DVR L9 KONAN DCT KOK UL607 SPI Y862 KENUM M170 NVO T857 BIKMU BIKMU1A
Aircraft A320/M-SDE1E2E3FGHIRWXY/LB1

Departure

Time 2026-05-04 17:17
Airport London Gatwick Airport (EGKK)

Arrival

Time 2026-05-04 18:13
Airport Düsseldorf Airport (EDDL)
Time Latitude Longitude Altitude Speed Heading
2026-05-04 16:43 51.15428 -0.17783 205 ft 0 kts 167°
2026-05-04 17:02 51.15447 -0.17790 207 ft 4 kts 171°
2026-05-04 17:02 51.15498 -0.17783 208 ft 4 kts 226°
2026-05-04 17:03 51.15504 -0.17769 216 ft 0 kts 257°
2026-05-04 17:07 51.15503 -0.17778 206 ft 6 kts 257°
2026-05-04 17:07 51.15466 -0.18040 205 ft 20 kts 257°
2026-05-04 17:08 51.15452 -0.18137 210 ft 5 kts 257°
2026-05-04 17:08 51.15364 -0.18269 213 ft 10 kts 164°
2026-05-04 17:08 51.15297 -0.18249 212 ft 10 kts 166°
2026-05-04 17:09 51.15230 -0.18224 211 ft 10 kts 174°
2026-05-04 17:09 51.15188 -0.18313 205 ft 14 kts 263°
2026-05-04 17:09 51.15167 -0.18475 211 ft 16 kts 257°
2026-05-04 17:10 51.15113 -0.18861 213 ft 18 kts 257°
2026-05-04 17:10 51.15005 -0.19643 206 ft 24 kts 258°
2026-05-04 17:11 51.14968 -0.19924 211 ft 28 kts 257°
2026-05-04 17:11 51.14929 -0.20200 205 ft 27 kts 257°
2026-05-04 17:11 51.14851 -0.20753 209 ft 22 kts 257°
2026-05-04 17:12 51.14817 -0.20998 207 ft 24 kts 258°
2026-05-04 17:12 51.14731 -0.21398 207 ft 12 kts 189°
2026-05-04 17:13 51.14615 -0.21328 206 ft 0 kts 169°
2026-05-04 17:14 51.14612 -0.21328 206 ft 3 kts 169°
2026-05-04 17:14 51.14578 -0.21315 210 ft 6 kts 160°
2026-05-04 17:14 51.14524 -0.21149 206 ft 0 kts 76°
2026-05-04 17:16 51.14714 -0.19797 217 ft 145 kts 78°
2026-05-04 17:17 51.14953 -0.18102 917 ft 158 kts 77°
2026-05-04 17:17 51.15771 -0.12162 3050 ft 213 kts 76°
2026-05-04 17:18 51.16110 -0.09716 3686 ft 239 kts 76°
2026-05-04 17:18 51.16836 -0.04161 5742 ft 266 kts 82°
2026-05-04 17:19 51.16799 0.01873 8064 ft 278 kts 92°
2026-05-04 17:19 51.16675 0.08167 10323 ft 290 kts 92°
2026-05-04 17:20 51.16556 0.14690 12460 ft 299 kts 91°
2026-05-04 17:20 51.16522 0.21414 14500 ft 308 kts 90°
2026-05-04 17:20 51.16540 0.24844 15431 ft 312 kts 90°
2026-05-04 17:21 51.16578 0.31855 17298 ft 320 kts 91°
2026-05-04 17:21 51.16593 0.39047 19033 ft 329 kts 91°
2026-05-04 17:22 51.16597 0.42721 19838 ft 333 kts 91°
2026-05-04 17:22 51.16598 0.46437 20642 ft 337 kts 91°
2026-05-04 17:23 51.16586 0.58257 22198 ft 375 kts 92°
2026-05-04 17:23 51.16579 0.62439 22929 ft 380 kts 92°
2026-05-04 17:23 51.16565 0.70950 24301 ft 389 kts 93°
2026-05-04 17:24 51.16557 0.75278 24937 ft 393 kts 93°
2026-05-04 17:24 51.16518 0.88534 26762 ft 405 kts 93°
2026-05-04 17:25 51.16509 0.91815 27187 ft 408 kts 93°
2026-05-04 17:25 51.16477 1.00948 28254 ft 417 kts 93°
2026-05-04 17:26 51.16436 1.10279 29323 ft 425 kts 93°
2026-05-04 17:26 51.16346 1.24558 30762 ft 434 kts 93°
2026-05-04 17:27 51.16274 1.34162 31745 ft 437 kts 93°
2026-05-04 17:27 51.16178 1.43810 32841 ft 435 kts 94°
2026-05-04 17:28 51.16080 1.53434 33000 ft 434 kts 94°
2026-05-04 17:29 51.15525 1.67413 32998 ft 400 kts 99°
2026-05-04 17:29 51.14554 1.80368 32999 ft 390 kts 100°
2026-05-04 17:31 51.12939 2.01785 32999 ft 390 kts 100°
2026-05-04 17:32 51.11830 2.23281 32988 ft 389 kts 98°
2026-05-04 17:33 51.10900 2.40381 32966 ft 389 kts 99°
2026-05-04 17:34 51.09914 2.57518 32977 ft 389 kts 99°
2026-05-04 17:35 51.08580 2.70136 32976 ft 383 kts 110°
2026-05-04 17:35 51.07100 2.78284 32976 ft 384 kts 110°
2026-05-04 17:36 51.05627 2.86436 32966 ft 384 kts 110°
2026-05-04 17:36 51.04142 2.94583 32967 ft 384 kts 110°
2026-05-04 17:37 51.02647 3.02722 32965 ft 384 kts 110°
2026-05-04 17:37 51.01145 3.10860 32967 ft 384 kts 110°
2026-05-04 17:38 50.99645 3.18996 32965 ft 384 kts 110°
2026-05-04 17:38 50.98139 3.27126 32959 ft 384 kts 110°
2026-05-04 17:39 50.95869 3.39302 32944 ft 384 kts 111°
2026-05-04 17:39 50.94344 3.47411 32950 ft 383 kts 111°
2026-05-04 17:40 50.92807 3.55506 32950 ft 383 kts 111°
2026-05-04 17:40 50.91273 3.63599 32946 ft 383 kts 111°
2026-05-04 17:41 50.89732 3.71679 32947 ft 383 kts 111°
2026-05-04 17:41 50.88175 3.79756 32942 ft 383 kts 112°
2026-05-04 17:42 50.86610 3.87827 32943 ft 384 kts 112°
2026-05-04 17:42 50.85037 3.95900 32947 ft 384 kts 112°
2026-05-04 17:43 50.83459 4.03980 32948 ft 384 kts 112°
2026-05-04 17:43 50.81874 4.12044 32950 ft 384 kts 112°
2026-05-04 17:44 50.80284 4.20106 32954 ft 384 kts 112°
2026-05-04 17:44 50.78690 4.28172 32950 ft 384 kts 112°
2026-05-04 17:45 50.77091 4.36229 32952 ft 384 kts 112°
2026-05-04 17:45 50.75491 4.44278 32953 ft 384 kts 112°
2026-05-04 17:46 50.73878 4.52326 32954 ft 384 kts 112°
2026-05-04 17:46 50.72254 4.60355 32953 ft 384 kts 112°
2026-05-04 17:47 50.70668 4.68415 32939 ft 385 kts 112°
2026-05-04 17:47 50.69114 4.76493 32953 ft 385 kts 112°
2026-05-04 17:48 50.67554 4.84572 32956 ft 385 kts 113°
2026-05-04 17:48 50.65978 4.92647 32962 ft 385 kts 113°
2026-05-04 17:49 50.64351 5.00685 32962 ft 385 kts 114°
2026-05-04 17:49 50.62686 5.08703 32963 ft 385 kts 114°
2026-05-04 17:50 50.61301 5.15360 32963 ft 386 kts 115°
2026-05-04 17:50 50.59628 5.23409 32977 ft 387 kts 115°
2026-05-04 17:51 50.57947 5.31499 32843 ft 399 kts 115°
2026-05-04 17:51 50.57073 5.35676 32378 ft 402 kts 115°
2026-05-04 17:51 50.56208 5.39832 31885 ft 398 kts 115°
2026-05-04 17:52 50.55352 5.43952 31395 ft 395 kts 115°
2026-05-04 17:52 50.54497 5.48039 30898 ft 392 kts 115°
2026-05-04 17:52 50.53644 5.52087 30404 ft 389 kts 115°
2026-05-04 17:52 50.52875 5.56175 29876 ft 393 kts 108°
2026-05-04 17:53 50.52597 5.60480 29357 ft 400 kts 96°
2026-05-04 17:53 50.52897 5.64840 28882 ft 405 kts 83°
2026-05-04 17:53 50.53782 5.69059 28393 ft 409 kts 69°
2026-05-04 17:53 50.55101 5.73014 27891 ft 408 kts 65°
2026-05-04 17:54 50.56443 5.76926 27385 ft 405 kts 65°
2026-05-04 17:54 50.57764 5.80811 26864 ft 403 kts 65°
2026-05-04 17:54 50.59077 5.84697 26348 ft 400 kts 65°
2026-05-04 17:54 50.60376 5.88555 25805 ft 399 kts 65°
2026-05-04 17:55 50.61676 5.92416 25274 ft 398 kts 64°
2026-05-04 17:55 50.62972 5.96263 24697 ft 397 kts 64°
2026-05-04 17:55 50.64260 6.00089 24124 ft 395 kts 64°
2026-05-04 17:55 50.65543 6.03909 23538 ft 394 kts 63°
2026-05-04 17:56 50.66821 6.07722 22900 ft 392 kts 63°
2026-05-04 17:56 50.68086 6.11500 22358 ft 388 kts 63°
2026-05-04 17:56 50.69337 6.15239 21842 ft 383 kts 63°
2026-05-04 17:56 50.70572 6.18931 21351 ft 379 kts 63°
2026-05-04 17:57 50.71797 6.22588 20864 ft 375 kts 63°
2026-05-04 17:57 50.72859 6.26321 20377 ft 370 kts 70°
2026-05-04 17:57 50.73809 6.30079 19877 ft 367 kts 70°
2026-05-04 17:57 50.74741 6.33757 19408 ft 364 kts 70°
2026-05-04 17:58 50.75679 6.37454 18934 ft 362 kts 70°
2026-05-04 17:58 50.76623 6.41175 18454 ft 359 kts 70°
2026-05-04 17:58 50.77539 6.44779 17954 ft 357 kts 70°
2026-05-04 17:58 50.78454 6.48401 17477 ft 353 kts 70°
2026-05-04 17:59 50.79352 6.51981 17031 ft 348 kts 70°
2026-05-04 17:59 50.80240 6.55525 16589 ft 345 kts 70°
2026-05-04 17:59 50.82990 6.61544 15643 ft 345 kts 33°
2026-05-04 18:00 50.85128 6.63234 15197 ft 343 kts 24°
2026-05-04 18:00 50.87312 6.64732 14759 ft 342 kts 23°
2026-05-04 18:00 50.89490 6.66208 14325 ft 340 kts 23°
2026-05-04 18:00 50.91669 6.67679 13899 ft 340 kts 23°
2026-05-04 18:01 50.93838 6.69144 13456 ft 338 kts 23°
2026-05-04 18:01 50.95991 6.70598 13036 ft 335 kts 23°
2026-05-04 18:01 50.98133 6.72047 12618 ft 333 kts 23°
2026-05-04 18:02 51.02352 6.74899 11785 ft 327 kts 23°
2026-05-04 18:02 51.04439 6.76308 11361 ft 325 kts 23°
2026-05-04 18:02 51.06513 6.77708 11024 ft 320 kts 23°
2026-05-04 18:02 51.08534 6.79079 10982 ft 314 kts 23°
2026-05-04 18:03 51.10540 6.80443 10987 ft 313 kts 23°
2026-05-04 18:03 51.12544 6.81805 10985 ft 313 kts 23°
2026-05-04 18:03 51.14548 6.83164 10983 ft 311 kts 23°
2026-05-04 18:03 51.16527 6.84499 10980 ft 308 kts 23°
2026-05-04 18:04 51.18501 6.85828 10974 ft 308 kts 23°
2026-05-04 18:04 51.20436 6.87281 10973 ft 307 kts 34°
2026-05-04 18:04 51.23304 6.92149 10351 ft 300 kts 53°
2026-05-04 18:05 51.24603 6.94763 9941 ft 299 kts 53°
2026-05-04 18:05 51.25888 6.97358 9500 ft 297 kts 53°
2026-05-04 18:05 51.27167 6.99946 9030 ft 296 kts 53°
2026-05-04 18:05 51.28422 7.02491 8552 ft 295 kts 53°
2026-05-04 18:06 51.30949 7.07613 7618 ft 292 kts 53°
2026-05-04 18:06 51.32204 7.10160 7151 ft 291 kts 53°
2026-05-04 18:06 51.33547 7.12570 6690 ft 291 kts 39°
2026-05-04 18:07 51.35352 7.13973 6208 ft 289 kts 11°
2026-05-04 18:07 51.37322 7.13940 5779 ft 281 kts 343°
2026-05-04 18:07 51.39131 7.12842 5328 ft 277 kts 334°
2026-05-04 18:07 51.40882 7.11576 4835 ft 275 kts 333°
2026-05-04 18:08 51.42535 7.10085 4332 ft 270 kts 316°
2026-05-04 18:08 51.43505 7.07625 3876 ft 261 kts 281°
2026-05-04 18:08 51.43394 7.04815 3387 ft 254 kts 245°
2026-05-04 18:08 51.42263 7.02752 3040 ft 249 kts 209°
2026-05-04 18:09 51.39655 6.99165 3004 ft 257 kts 241°
2026-05-04 18:09 51.37675 6.94432 2758 ft 250 kts 231°
2026-05-04 18:10 51.36635 6.92273 2439 ft 237 kts 231°
2026-05-04 18:10 51.35676 6.90255 2137 ft 220 kts 231°
2026-05-04 18:10 51.34782 6.88369 1847 ft 206 kts 231°
2026-05-04 18:10 51.33942 6.86595 1579 ft 195 kts 231°
2026-05-04 18:11 51.33150 6.84927 1349 ft 180 kts 231°
2026-05-04 18:11 51.32449 6.83447 1064 ft 154 kts 229°
2026-05-04 18:11 51.31839 6.82163 858 ft 138 kts 230°
2026-05-04 18:11 51.31277 6.80980 678 ft 130 kts 230°
2026-05-04 18:12 51.30731 6.79839 517 ft 130 kts 230°
2026-05-04 18:12 51.30191 6.78687 366 ft 130 kts 229°
2026-05-04 18:12 51.29650 6.77545 153 ft 128 kts 229°
2026-05-04 18:12 51.29139 6.76526 132 ft 90 kts 235°
2026-05-04 18:13 51.28942 6.76087 126 ft 26 kts 233°
2026-05-04 18:13 51.28800 6.75796 126 ft 35 kts 223°
2026-05-04 18:13 51.28601 6.75680 123 ft 0 kts 174°
2026-05-04 18:14 51.28572 6.75686 125 ft 11 kts 171°
2026-05-04 18:14 51.28484 6.75749 123 ft 16 kts 142°
2026-05-04 18:15 51.28289 6.75987 129 ft 17 kts 147°
2026-05-04 18:15 51.28149 6.75916 126 ft 0 kts 205°
2026-05-04 18:17 51.28104 6.75882 129 ft 5 kts 205°
2026-05-04 18:17 51.28055 6.75846 126 ft 15 kts 205°
2026-05-04 18:17 51.27800 6.75814 129 ft 18 kts 181°
2026-05-04 18:18 51.27679 6.75812 129 ft 15 kts 180°
2026-05-04 18:18 51.27589 6.75858 128 ft 5 kts 118°
2026-05-04 18:18 51.27603 6.75869 126 ft 4 kts 16°
2026-05-04 18:18 51.27629 6.75922 126 ft 6 kts 65°
2026-05-04 18:19 51.27633 6.75937 128 ft 0 kts 66°